GW6795 Weather Reports


time (UTC)temp
C
wind
direction
speed
KPH
gust
KPH
rain 1hr
cm
rain 24hr
cm
rain mn
cm
humidity
%
barometer
mb
20260505224546 10 333 1.6 8.0 0.00 0.00 0.00 84 1009.1
20260505224046 10 295 3.2 8.0 0.00 0.00 0.00 84 1009.5
20260505223547 10 259 6.4 8.0 0.00 0.00 0.00 84 1009.1
20260505223047 10 284 9.7 11.3 0.00 0.00 0.00 84 1009.1
20260505222546 10 349 6.4 9.7 0.00 0.00 0.00 84 1009.5
20260505222046 10 281 8.0 9.7 0.00 0.00 0.00 84 1009.5
20260505221546 10 330 4.8 4.8 0.00 0.00 0.00 85 1009.5
20260505221048 10 325 4.8 8.0 0.00 0.00 0.00 85 1009.5
20260505220546 10 294 4.8 9.7 0.00 0.00 0.00 86 1009.5
20260505220046 10 289 4.8 6.4 0.00 0.00 0.00 86 1009.5
20260505215546 10 320 6.4 8.0 0.00 0.00 1.07 86 1009.5
20260505215046 10 320 4.8 11.3 0.00 0.00 1.07 87 1009.8
20260505214547 10 316 4.8 8.0 0.00 0.00 1.07 88 1009.8
20260505214046 10 337 4.8 11.3 0.00 0.00 1.07 88 1009.5
20260505213547 10 337 4.8 6.4 0.00 0.00 1.07 88 1009.8
20260505213046 10 320 3.2 8.0 0.00 0.00 1.07 87 1009.8
20260505212546 10 339 3.2 8.0 0.00 0.00 1.07 87 1009.8
20260505212047 10 305 1.6 8.0 0.00 0.00 1.07 87 1009.8
20260505211547 10 333 8.0 14.5 0.00 0.00 1.07 86 1009.8
20260505211048 11 318 3.2 9.7 0.00 0.00 1.07 86 1009.8
20260505210548 11 315 4.8 11.3 0.00 0.00 1.07 86 1009.8
20260505210046 11 247 3.2 8.0 0.00 0.00 1.07 86 1009.8
20260505205547 11 325 6.4 12.9 0.00 0.00 1.07 85 1009.8
20260505205046 11 306 4.8 8.0 0.00 0.00 1.07 85 1009.8
20260505204546 11 325 4.8 6.4 0.00 0.00 1.07 85 1009.8
20260505204047 11 312 9.7 11.3 0.00 0.00 1.07 85 1009.8
20260505203547 11 293 6.4 14.5 0.00 0.00 1.07 85 1009.8
20260505203048 11 295 4.8 11.3 0.00 0.00 1.07 85 1009.8
20260505202546 11 349 0.0 6.4 0.00 0.00 1.07 85 1009.8
20260505202046 11 313 4.8 9.7 0.00 0.00 1.07 84 1009.8
20260505201546 11 309 6.4 9.7 0.00 0.00 1.07 84 1009.8
20260505201046 11 270 1.6 8.0 0.00 0.00 1.07 84 1009.8
20260505200546 11 308 3.2 8.0 0.00 0.00 1.07 84 1009.8
20260505200047 11 49 8.0 9.7 0.00 0.00 1.07 84 1009.8
20260505195111 11 296 11.3 11.3 0.00 0.00 1.07 84 1009.8
20260505194547 11 293 4.8 9.7 0.00 0.00 1.07 84 1009.8
20260505194047 11 324 4.8 9.7 0.00 0.00 1.07 84 1009.8
20260505193547 11 271 4.8 8.0 0.00 0.00 1.07 84 1009.8
20260505193047 11 308 4.8 11.3 0.00 0.00 1.07 84 1009.5
20260505192548 11 39 9.7 12.9 0.00 0.00 1.07 84 1009.5
20260505192046 11 339 4.8 6.4 0.00 0.00 1.07 84 1009.5
20260505191546 11 303 4.8 8.0 0.00 0.00 1.07 84 1009.5
20260505191046 11 356 6.4 6.4 0.00 0.00 1.07 84 1009.5
20260505190552 11 311 4.8 9.7 0.00 0.00 1.07 84 1009.5
20260505190046 11 283 4.8 11.3 0.00 0.00 1.07 83 1009.1
20260505185546 11 280 3.2 8.0 0.00 0.00 1.07 83 1009.5
20260505185047 11 307 3.2 4.8 0.00 0.00 1.07 83 1009.5
20260505184547 11 11 6.4 6.4 0.00 0.00 1.07 83 1009.5
20260505184047 11 305 4.8 6.4 0.00 0.00 1.07 83 1009.1
20260505183547 11 293 8.0 16.1 0.00 0.00 1.07 83 1009.5
20260505183047 11 336 4.8 11.3 0.00 0.00 1.07 83 1009.5
20260505182547 11 317 4.8 8.0 0.00 0.00 1.07 84 1009.5
20260505182048 11 330 3.2 12.9 0.00 0.00 1.07 83 1009.5
20260505181547 11 315 8.0 11.3 0.00 0.00 1.07 83 1009.5
20260505181048 11 272 1.6 8.0 0.00 0.00 1.07 84 1009.1
20260505180550 11 298 1.6 9.7 0.00 0.00 1.07 84 1009.5
20260505180047 11 304 3.2 6.4 0.00 0.00 1.07 84 1009.5
20260505175546 11 319 6.4 9.7 0.00 0.00 1.07 84 1009.5
20260505175048 11 6 3.2 12.9 0.00 0.00 1.07 84 1009.1
20260505174547 11 303 3.2 8.0 0.00 0.00 1.07 85 1009.1
20260505174047 11 303 3.2 12.9 0.00 0.00 1.07 84 1009.5
20260505173547 11 323 4.8 14.5 0.00 0.00 1.07 84 1009.1
20260505173047 11 354 4.8 20.9 0.00 0.00 1.07 84 1009.5
20260505172547 11 319 9.7 11.3 0.00 0.00 1.07 84 1009.5
20260505172046 11 301 4.8 6.4 0.00 0.00 1.07 85 1009.1
20260505171547 11 312 6.4 6.4 0.00 0.00 1.07 85 1009.5
20260505171047 11 293 4.8 6.4 0.00 0.00 1.07 85 1009.5
20260505170548 11 281 4.8 9.7 0.00 0.00 1.07 85 1009.5
20260505170047 11 295 1.6 8.0 0.00 0.00 1.07 86 1009.5
20260505165546 11 318 4.8 9.7 0.00 0.00 1.07 85 1009.5
20260505165047 11 307 4.8 8.0 0.00 0.00 1.07 86 1009.5
20260505164547 11 325 4.8 8.0 0.00 0.00 1.07 86 1009.8
20260505164047 11 327 4.8 8.0 0.00 0.00 1.07 86 1009.5
20260505163547 11 320 4.8 11.3 0.00 0.00 1.07 86 1009.8
20260505163049 11 332 3.2 8.0 0.00 0.00 1.07 86 1009.8
20260505162547 11 351 4.8 9.7 0.00 0.00 1.07 86 1009.8
20260505162046 11 7 4.8 6.4 0.00 0.00 1.07 86 1009.5
20260505161546 11 306 6.4 8.0 0.00 0.00 1.07 86 1009.8
20260505161047 11 302 6.4 9.7 0.00 0.00 1.07 86 1009.8
20260505160547 11 283 3.2 9.7 0.00 0.00 1.07 85 1009.8
20260505153047 11 353 4.8 8.0 0.00 0.00 1.07 86 1009.8
20260505152548 11 298 6.4 8.0 0.00 0.00 1.07 86 1009.8
20260505152047 11 300 6.4 8.0 0.00 0.00 1.07 86 1009.8
20260505151547 11 320 6.4 11.3 0.00 0.00 1.07 85 1009.8
20260505151047 12 274 4.8 8.0 0.00 0.00 1.07 86 1009.8
20260505150547 12 16 8.0 9.7 0.00 0.00 1.07 86 1010.2
20260505140547 11 269 3.2 8.0 0.00 0.00 1.07 88 1010.2
20260505124549 11 313 8.0 14.5 0.00 0.00 1.07 90 1010.8
20260505124047 11 321 4.8 9.7 0.00 0.00 1.07 91 1011.2
20260505123546 11 290 3.2 12.9 0.00 0.00 1.07 91 1010.8
20260505123046 11 339 4.8 6.4 0.00 0.00 1.07 92 1010.8
20260505122546 10 309 1.6 11.3 0.00 0.00 1.07 92 1010.8
20260505122047 10 14 8.0 9.7 0.00 0.00 1.07 92 1010.8
20260505121546 10 296 0.0 14.5 0.00 0.00 1.07 92 1011.2
20260505121046 10 328 4.8 6.4 0.00 0.00 1.07 92 1010.5
20260505120546 10 6 4.8 14.5 0.00 0.00 1.07 92 1010.8
20260505120046 10 310 3.2 8.0 0.00 0.00 1.07 93 1010.8
20260505115546 10 278 3.2 9.7 0.00 0.00 1.07 93 1011.2
20260505115046 10 316 4.8 8.0 0.00 0.00 1.07 93 1011.2
20260505114546 10 299 8.0 8.0 0.00 0.00 1.07 93 1011.2
20260505114046 10 305 3.2 9.7 0.00 0.00 1.07 93 1011.2
20260505113546 10 309 4.8 9.7 0.00 0.00 1.07 93 1011.2
20260505113046 10 7 4.8 8.0 0.00 0.00 1.07 94 1011.2
20260505112546 10 308 4.8 8.0 0.00 0.00 1.07 94 1011.2
20260505112046 10 353 8.0 9.7 0.00 0.00 1.07 94 1011.2
20260505111547 10 324 4.8 4.8 0.00 0.00 1.07 94 1011.2
20260505111046 10 341 8.0 11.3 0.00 0.00 1.07 94 1011.2
20260505110546 10 310 6.4 11.3 0.00 0.00 1.07 94 1011.2
20260505102047 10 304 4.8 14.5 0.00 0.00 1.04 94 1011.2
20260505101546 10 318 6.4 12.9 0.00 0.00 1.04 94 1011.5
20260505101046 10 303 6.4 9.7 0.00 0.00 1.04 94 1011.5
20260505100547 10 356 4.8 11.3 0.00 0.00 1.04 94 1011.5
20260505100046 10 305 4.8 4.8 0.00 0.00 1.04 94 1011.5
20260505095549 10 294 4.8 12.9 0.00 0.00 1.04 94 1011.5
20260505095046 10 285 4.8 8.0 0.05 0.00 1.04 94 1011.5
20260505094546 10 300 4.8 6.4 0.00 0.00 1.04 94 1011.2
20260505094046 10 316 6.4 14.5 0.00 0.00 1.04 94 1011.5
20260505093546 10 314 8.0 11.3 0.00 0.00 1.04 94 1011.2
20260505093046 10 337 4.8 11.3 0.00 0.00 1.04 94 1011.5
20260505092546 10 309 3.2 6.4 0.00 0.00 1.04 94 1011.5
20260505092047 10 319 4.8 8.0 0.00 0.00 1.04 94 1011.2
20260505091546 10 317 3.2 6.4 0.00 0.00 1.04 94 1011.5
20260505091046 10 324 4.8 4.8 0.00 0.00 1.04 94 1011.5
20260505090546 10 346 4.8 6.4 0.00 0.00 1.04 94 1011.2
20260505090047 10 345 6.4 8.0 0.00 0.00 1.04 94 1011.5
20260505085546 9 358 4.8 9.7 0.00 0.00 1.04 94 1011.2
20260505085046 9 309 4.8 12.9 0.00 0.00 1.04 94 1011.5
20260505084546 9 342 4.8 11.3 0.00 0.00 1.04 94 1011.5
20260505084047 9 308 4.8 14.5 0.00 0.00 1.04 94 1011.5
20260505083546 9 337 3.2 8.0 0.00 0.00 1.04 94 1011.5
20260505083046 9 340 4.8 11.3 0.00 0.00 1.04 94 1011.5
20260505082547 9 274 4.8 11.3 0.00 0.00 1.04 94 1011.2
20260505082047 9 314 4.8 8.0 0.00 0.00 1.04 94 1011.2
20260505081546 9 303 6.4 11.3 0.00 0.00 1.04 94 1011.2
20260505081047 9 318 4.8 8.0 0.00 0.00 1.04 95 1011.5
20260505080548 9 310 4.8 12.9 0.00 0.00 1.04 94 1011.5
20260505080048 9 297 8.0 11.3 0.00 0.00 1.04 94 1011.2
20260505075546 10 344 6.4 8.0 0.00 0.00 1.04 95 1011.5
20260505075047 9 320 4.8 16.1 0.00 0.00 1.04 94 1011.2
20260505074547 10 295 1.6 9.7 0.00 0.00 1.04 95 1011.5
20260505074046 9 323 4.8 14.5 0.00 0.00 1.04 94 1011.5
20260505073546 10 298 3.2 8.0 0.00 0.00 1.04 95 1011.5
20260505073046 10 313 4.8 8.0 0.00 0.00 1.04 95 1011.5
20260505072547 9 339 4.8 14.5 0.00 0.00 1.04 95 1011.5
20260505072047 10 306 11.3 12.9 0.00 0.00 1.04 95 1011.5
20260505071546 10 321 4.8 8.0 0.00 0.00 1.04 95 1011.5
20260505071046 10 316 6.4 8.0 0.00 0.00 1.04 95 1011.2
20260505070547 10 315 4.8 20.9 0.00 0.00 1.04 95 1011.5
20260505070047 10 314 3.2 9.7 0.00 0.00 1.04 95 1011.5
20260505065547 10 262 6.4 17.7 0.00 0.00 1.04 95 1011.2
20260505065046 10 266 3.2 9.7 0.00 0.00 1.04 95 1011.5
20260505064547 10 294 4.8 14.5 0.00 0.00 1.04 95 1011.2
20260505064048 10 347 8.0 9.7 0.05 0.00 1.04 95 1011.5
20260505063546 10 288 8.0 14.5 0.05 0.00 1.04 95 1011.5
20260505063046 10 341 3.2 6.4 0.00 0.00 1.04 95 1011.5
20260505062547 10 293 3.2 6.4 0.00 0.00 1.04 95 1011.5
20260505062046 10 351 6.4 9.7 0.00 0.00 1.04 95 1011.5
20260505061547 10 315 4.8 8.0 0.00 0.00 1.04 96 1011.5
20260505061047 10 285 3.2 8.0 0.00 0.00 1.04 96 1011.5
20260505060547 10 329 4.8 8.0 0.00 0.00 1.04 96 1011.5
20260505060047 10 297 3.2 11.3 0.00 0.00 1.04 95 1011.5
20260505055547 10 334 6.4 11.3 0.00 0.00 1.04 95 1011.5
20260505055047 10 307 4.8 9.7 0.00 0.00 1.04 96 1011.5
20260505054546 10 325 8.0 8.0 0.00 0.00 1.04 95 1011.5
20260505054046 10 305 6.4 8.0 0.05 0.00 1.04 96 1011.5
20260505053547 10 274 3.2 9.7 0.05 0.00 1.04 96 1011.5
20260505053046 10 306 4.8 6.4 0.00 0.00 1.02 96 1011.5
20260505052546 10 308 4.8 8.0 0.00 0.00 1.02 96 1011.5
20260505052046 10 322 11.3 14.5 0.00 0.00 1.02 96 1011.2
20260505051546 10 310 6.4 11.3 0.00 0.00 1.02 96 1011.2
20260505051046 10 351 9.7 9.7 0.00 0.00 1.02 96 1011.2
20260505050546 10 358 3.2 9.7 0.05 0.00 1.02 96 1011.2
20260505041547 11 347 1.6 8.0 0.13 0.00 0.89 96 1011.2
20260505041047 11 284 1.6 8.0 0.13 0.00 0.89 96 1011.2
20260505040546 11 333 4.8 6.4 0.18 0.00 0.86 96 1011.2
20260505040046 11 289 1.6 6.4 0.18 0.00 0.86 96 1011.2
20260505035547 11 331 1.6 8.0 0.18 0.00 0.84 96 1011.2
20260505035048 11 311 6.4 14.5 0.23 0.00 0.84 95 1011.2
20260505034547 11 296 4.8 6.4 0.18 0.00 0.81 96 1011.2
20260505034047 11 8 6.4 8.0 0.18 0.00 0.79 96 1011.2
20260505033546 11 356 8.0 9.7 0.23 0.00 0.79 95 1011.5
20260505033047 11 275 3.2 9.7 0.18 0.00 0.76 95 1011.2
20260505032546 11 312 4.8 6.4 0.18 0.00 0.74 96 1011.2
20260505032046 11 335 4.8 4.8 0.23 0.00 0.74 96 1011.2
20260505031547 11 288 1.6 4.8 0.23 0.00 0.71 95 1011.2
20260505031046 11 324 3.2 8.0 0.23 0.00 0.69 95 1011.2
20260505030547 11 31 3.2 9.7 0.13 0.00 0.66 95 1011.2
20260505030047 11 0 6.4 8.0 0.23 0.00 0.66 95 1011.5
20260505025547 11 339 6.4 9.7 0.23 0.00 0.64 95 1011.2
20260505025046 12 302 4.8 9.7 0.05 0.00 0.61 95 1011.2
20260505024547 12 289 4.8 6.4 0.13 0.00 0.61 95 1011.5
20260505024046 12 304 8.0 9.7 0.18 0.00 0.58 95 1011.2
20260505023547 12 342 4.8 11.3 0.36 0.00 0.56 95 1011.5
20260505023048 12 280 3.2 9.7 0.30 0.00 0.56 95 1011.2
20260505022546 12 348 4.8 9.7 0.00 0.00 0.51 95 1011.2
20260505022046 12 293 4.8 11.3 0.00 0.00 0.51 95 1011.5
20260505021547 12 339 8.0 9.7 0.00 0.00 0.51 95 1011.2
20260505021046 12 310 6.4 8.0 0.00 0.00 0.51 95 1011.2
20260505020548 12 306 4.8 11.3 0.00 0.00 0.51 95 1011.2
20260505020055 12 317 6.4 16.1 0.00 0.00 0.51 95 1011.2
20260505015547 12 352 4.8 9.7 0.00 0.00 0.51 95 1011.5
20260505015046 12 300 8.0 9.7 0.00 0.00 0.51 95 1011.2
20260505014546 12 333 3.2 9.7 0.05 0.00 0.51 95 1011.2
20260505014046 12 281 9.7 11.3 0.05 0.00 0.51 95 1011.2
20260505013546 12 328 8.0 11.3 0.00 0.00 0.51 95 1011.2
20260505013046 13 338 6.4 11.3 0.00 0.00 0.51 95 1011.5
20260505012546 13 286 4.8 9.7 0.05 0.00 0.51 95 1011.2
20260505012047 13 326 4.8 6.4 0.05 0.00 0.51 95 1011.5
20260505011547 13 302 6.4 9.7 0.05 0.00 0.48 95 1011.5
20260505011047 13 342 6.4 6.4 0.23 0.00 0.48 95 1011.5
20260505010547 13 304 4.8 8.0 0.30 0.00 0.48 95 1011.5
20260505010047 13 291 3.2 8.0 0.53 0.00 0.46 95 1011.5
20260505005546 13 343 4.8 9.7 0.48 0.00 0.41 95 1011.2
20260505005046 13 311 3.2 8.0 0.43 0.00 0.38 95 1011.9
20260505004546 13 310 6.4 8.0 0.48 0.00 0.33 95 1011.5
20260505004046 13 331 1.6 4.8 0.43 0.00 0.28 95 1011.5
20260505003548 13 286 4.8 6.4 0.30 0.00 0.25 95 1011.5
20260505003047 13 309 6.4 8.0 0.36 0.00 0.23 95 1011.5
20260505002546 13 322 3.2 8.0 0.48 0.00 0.18 95 1011.5
20260505002047 13 313 4.8 8.0 0.43 0.00 0.15 95 1011.5
20260505001546 13 286 1.6 4.8 0.23 0.00 0.10 95 1011.5
20260505001047 13 304 3.2 4.8 0.13 0.00 0.10 95 1011.5
20260505000547 13 305 4.8 4.8 0.00 0.00 0.08 95 1011.5
20260505000047 13 285 3.2 4.8 0.00 0.00 0.08 95 1011.9
20260504235546 13 302 4.8 4.8 0.05 0.00 0.08 95 1011.9
20260504235046 13 291 3.2 4.8 0.05 0.00 0.08 95 1011.9
20260504234546 13 309 4.8 4.8 0.00 0.00 0.05 95 1011.9
20260504234047 14 298 4.8 4.8 0.05 0.00 0.05 95 1011.9
20260504233546 13 303 3.2 4.8 0.05 0.00 0.05 95 1011.9
20260504233046 14 289 3.2 4.8 0.00 0.00 0.05 95 1011.9
20260504232546 14 299 4.8 4.8 0.00 0.00 0.05 95 1011.9
20260504232047 13 266 4.8 6.4 0.00 0.00 0.05 95 1011.9
20260504231546 13 301 4.8 4.8 0.00 0.00 0.05 95 1011.9
20260504231055 14 278 3.2 6.4 0.05 0.00 0.05 95 1011.9
20260504230546 14 302 3.2 4.8 0.00 0.00 0.05 95 1012.2
20260504230046 14 299 4.8 4.8 0.05 0.00 0.05 94 1012.2
20260504225547 14 293 4.8 4.8 0.05 0.00 0.05 95 1012.5
20260504225047 14 296 4.8 4.8 0.00 0.00 0.03 95 1012.2